User: anonymous   Login
Location: B
(0.0000°N, 0.0000°E)
Time: 22:02:42
(UTC+02:00)
Language:

Cosmos 1025 Rocket - Orbit

View from above orbital plane
View from above orbital plane
View from above satellite
View from above satellite

Ground track
Ground track

The orbit data is extracted from the following two-line orbital elements,

1 10974U 78067B   15210.23921599  .00000191  00000-0  18452-4 0  9993
2 10974 082.4829 101.6059 0019054 104.8198 255.5132 14.87016659  5171
Epoch (UTC): 29 July 2015 05:44:28
Eccentricity: 0.0019054
inclination: 82.4829°
perigee height: 594 km
apogee height: 620 km
right ascension of ascending node: 101.6059°
argument of perigee: 104.8198°
revolutions per day: 14.87016659
mean anomaly at epoch: 255.5132°
orbit number at epoch: 517

The dashed part of the orbit path shows where the satellite is in the earth's shadow,  

DLR